Regional Weather Roundup
Issued by NWS Little Rock, AR

Home | Current Version | Previous Version | Graphics & Text | Print | Product List | Glossary On
Versions: 1 2 3 4 5 6 7 8 9 10 11 12 13 14 15 16 17 18 19 20 21 22 23 24 25 26 27 28 29 30 31 32 33 34 35 36 37 38 39 40 41 42 43 44 45 46 47 48 49 50
000
ASUS44 KLZK 231705
RWRLZK

WEATHER ROUNDUP FOR ARKANSAS
NATIONAL WEATHER SERVICE LITTLE ROCK AR
1200 PM CDT SUN APR 23 2017

NOTE: "FAIR" INDICATES FEW OR NO CLOUDS BELOW 12,000 FEET WITH NO
SIGNIFICANT WEATHER AND/OR OBSTRUCTIONS TO VISIBILITY.

ARZ001-003-010-029-231800-
NORTHWEST ARKANSAS

CITY           SKY/WX    TMP DP  RH WIND       PRES   REMARKS
FAYETTEVILLE   SUNNY     59  35  40 N9        30.12F
FORT SMITH     SUNNY     66  34  30 NE8       30.10F
HARRISON       SUNNY     60  38  43 NE12      30.10F
BENTONVILLE    SUNNY     61  36  39 N8        30.13F
ROGERS         SUNNY     60  37  42 NE10      30.12F
SILOAM SPGS    SUNNY     61  37  41 N7        30.13F
HIGHFILL       SUNNY     62  40  44 N10       30.12F
SPRINGDALE     SUNNY     57  37  47 NE5G15    30.14F
$$

ARZ004-005-016-231800-
NORTH CENTRAL ARKANSAS

CITY           SKY/WX    TMP DP  RH WIND       PRES   REMARKS
BATESVILLE     SUNNY     63  36  36 N9G18     30.03F
FLIPPIN        SUNNY    N/A N/A N/A N8        30.05F
MTN HOME       SUNNY     62  35  36 N8        30.06F
$$

ARZ040-041-231800-
WEST CENTRAL ARKANSAS

CITY           SKY/WX    TMP DP  RH WIND       PRES   REMARKS
MENA           SUNNY     63  41  45 NE6       30.08F
$$

ARZ009-017-025-026-028-231800-
NORTHEAST ARKANSAS

CITY           SKY/WX    TMP DP  RH WIND       PRES   REMARKS
JONESBORO      SUNNY     61  44  53 N10G21    29.98F
NEWPORT        SUNNY     60  45  57 N18       30.01S
WALNUT RIDGE   SUNNY     63  41  45 N16       30.00F
BLYTHEVILLE    CLOUDY    57  50  77 N16       29.97S
$$

ARZ022-023-033-042-044-231800-
CENTRAL ARKANSAS

CITY           SKY/WX    TMP DP  RH WIND       PRES   REMARKS
LITTLE ROCK    MOSUNNY   63  42  46 N14G22    30.03F
N LITTLE ROCK    N/A     61  42  48 N9G18     30.04F
JACKSONVILLE   SUNNY     62  40  44 N10G17    30.02F
CONWAY           N/A     64  39  39 N14       30.03F
SEARCY         SUNNY     62  41  46 NW8G20    30.03
HOT SPRINGS    SUNNY     63  42  46 NE8G17    30.05S
RUSSELLVILLE   SUNNY     64  37  36 N13G18    30.05F
$$

ARZ036-231800-
EAST ARKANSAS

CITY           SKY/WX    TMP DP  RH WIND       PRES   REMARKS
WEST MEMPHIS   CLOUDY    56  47  71 N14G21    29.96F
$$

ARZ050-053-066-070-073-231800-
SOUTHWEST ARKANSAS

CITY           SKY/WX    TMP DP  RH WIND       PRES   REMARKS
ARKADELPHIA    FAIR      64  45  49 NE9G16    30.05F
CAMDEN         MOSUNNY   64  41  42 N8        30.04F
TEXARKANA      SUNNY     63  45  51 N7        30.07F
EL DORADO      MOSUNNY   63  47  55 N12G18    30.04F
DE QUEEN       SUNNY     66  43  43 VRB7      30.06F
$$

ARZ056-057-069-231800-
SOUTHEAST ARKANSAS

CITY           SKY/WX    TMP DP  RH WIND       PRES   REMARKS
PINE BLUFF     SUNNY     61  45  55 N14G24    30.02F
STUTTGART      SUNNY     63  39  42 N16       30.01F
MONTICELLO     PTSUNNY   62  44  51 NW8       30.00F

$$





USA.gov is the U.S. government's official web portal to all federal, state and local government web resources and services.